Flag for Saint Vincent and Grenadines Weather past 2 weeks in Kingstown, Saint Vincent and Grenadines

Now
86 °F

Scattered clouds.


Feels Like: 92 °F
Forecast: 79 / 82 °F
Wind: 15 mph from East

Location: Arnos Vale


UV Index: 10 (Very high)

Visibility: N/A


Pressure: 30.01 "Hg

Humidity: 62%

Dew point: 72 °F

Location of KingstownLocation

Historic Weather in Kingstown

°F

Kingstown temperature yesterday

Maximum temperature yesterday: 84 °F (at 9:00 AM)
Minimum temperature yesterday: 77 °F (at 6:00 AM)
Average temperature yesterday: 82 °F

Past Weeks' High & Low Weather Summary

 TemperatureHumidityPressure
High86 °F (Apr 3, 2:00 PM)89% (Apr 5, 5:00 PM)30.09 "Hg (Apr 5, 5:00 PM)
Low75 °F (Apr 5, 8:00 PM)20% (Apr 16, 7:00 PM)29.86 "Hg (Apr 15, 4:00 PM)
Average82 °F69%30.00 "Hg
* Reported Apr 2 11:00 AM — Apr 17 11:00 AM, Kingstown, Weather by CustomWeather, © 2014

Note: Actual official high and low records may vary slightly from our data, if they occured in-between our weather recording intervals... More about our weather records

Advertising

Historic Weather Conditions — Data for Previous 24 hours

 ConditionsComfort  
Time TempWeatherWind HumidityBarometerVisibility
11:00 AM
Apr 17
86 °FPartly sunny.14 mph62%30.01 "HgN/A
10:00 AM84 °FScattered clouds.14 mph66%30.01 "HgN/A
9:00 AM82 °FScattered clouds.15 mph70%30.01 "HgN/A
8:00 AM82 °FPartly sunny.15 mph70%29.98 "HgN/A
7:00 AM79 °FBroken clouds.13 mph79%29.95 "HgN/A
6:00 AM77 °FPartly sunny.8 mph83%29.95 "HgN/A
11:00 PM
Apr 16
79 °FPassing clouds.9 mph79%29.98 "HgN/A
10:00 PM81 °FPassing clouds.8 mph74%29.98 "HgN/A
9:00 PM81 °FPassing clouds.8 mph84%29.95 "HgN/A
8:00 PM81 °FPassing clouds.8 mph74%29.95 "HgN/A
7:00 PM81 °FPassing clouds.10 mph20%29.92 "HgN/A
6:00 PM82 °FPassing clouds.13 mph70%29.92 "HgN/A
5:00 PM84 °FPassing clouds.12 mph66%29.89 "HgN/A
4:00 PM84 °FScattered clouds.12 mph66%29.89 "HgN/A
3:00 PM84 °FScattered clouds.13 mph70%29.92 "HgN/A
2:00 PM84 °FScattered clouds.10 mph70%29.95 "HgN/A
1:00 PM84 °FScattered clouds.13 mph66%29.95 "HgN/A
12:00 PM84 °FPartly sunny.14 mph66%29.98 "HgN/A
Weather by CustomWeather, © 2014

See weather overview